Regional Weather Roundup
Issued by NWS

Home | Current Version | Previous Version | Text Only | Print | Product List | Glossary On
Versions: 1 2 3 4 5 6 7 8 9 10 11 12 13 14 15 16 17 18 19 20 21 22 23 24 25 26 27 28 29 30 31 32 33 34 35 36 37 38 39 40 41 42 43 44 45 46 47 48 49 50
000
ASUS43 KTOP 261108
RWRKS

WEATHER ROUNDUP FOR KANSAS
NATIONAL WEATHER SERVICE GOODLAND KS
500 AM CST FRI DEC 26 2014

NOTE:  "FAIR" INDICATES FEW OR NO CLOUDS BELOW 12,000 FEET WITH NO
SIGNIFICANT WEATHER AND/OR OBSTRUCTIONS TO VISIBILITY.

KSZ001>006-013>018-027>032-041>047-261200-
NORTHWEST KANSAS

CITY           SKY/WX    TMP DP  RH WIND       PRES   REMARKS
GOODLAND       CLOUDY    24  22  91 N22G29    29.87S WCI   9
HAYS           CLOUDY    30  19  64 N21       29.88R WCI  17
HILL CITY      CLOUDY    30  24  78 N16       29.91R WCI  19
RUSSELL        CLOUDY    32  29  88 N17       29.85R WCI  21
$$

KSZ061>065-074>080-084>089-261200-
SOUTHWEST KANSAS

CITY           SKY/WX    TMP DP  RH WIND       PRES   REMARKS
DODGE CITY     CLOUDY    30  25  81 N18       29.84F WCI  18
ELKHART          N/A     29  21  72 N10         N/A  WCI  20
GARDEN CITY    CLOUDY    29  25  85 N20       29.84F WCI  16
GREAT BEND     CLOUDY    32  27  80 N15       29.88R WCI  22
LIBERAL        CLOUDY    30  21  69 N18       29.85R WCI  18
PRATT          CLOUDY    32  30  93 N15G21    29.85R WCI  22
$$

KSZ066>073-081>083-090>101-261200-
SOUTHEAST KANSAS

CITY           SKY/WX    TMP DP  RH WIND       PRES   REMARKS
CHANUTE        PTCLDY    46  37  71 S14       29.88S
COFFEYVILLE    MOCLDY    46  38  73 S10       29.89R
HUTCHINSON     CLEAR     32  27  81 N10       29.84R WCI  24
MEDICINE LODGE   N/A     30  27  88 N10       29.83S WCI  21
NEWTON         MOCLDY    37  27  65 NW13      29.85R WCI  29
PARSONS        PTCLDY    46  38  73 S9        29.90R
WICHITA INTL   MOCLDY    41  30  65 S7        29.82F
WICHITA JABRA  CLOUDY    41  30  65 S5        29.82F
WICHITA MCCONL CLOUDY    40  30  67 S6        29.83S
WINFIELD       MOCLDY    46  34  62 S8        29.84S
$$

KSZ007>012-019>026-033>040-048>060-102>105-261200-
NORTHEAST KANSAS

CITY           SKY/WX    TMP DP  RH WIND       PRES   REMARKS
CONCORDIA      CLOUDY    33  31  92 N13G23    29.87R WCI  24
EMPORIA        CLOUDY    44  32  62 S15       29.83R
LAWRENCE       CLOUDY    44  32  62 S8        29.85R
MANHATTAN      PTCLDY    36  30  79 W3        29.85R
MARYSVILLE     CLOUDY    32  32 100 N14       29.85R FOG     WCI  22
OLATHE IND     CLOUDY    45  34  65 S13       29.86R
OLATHE EXE     CLOUDY    46  33  60 S12G20    29.85R
SALINA         CLOUDY    34  30  85 N16       29.86R WCI  24
TOPEKA BILLARD CLOUDY    45  32  60 S3        29.84R
TOPEKA FORBES  CLOUDY    44  32  62 S6        29.83R
$$



USA.gov is the U.S. government's official web portal to all federal, state and local government web resources and services.